Change the Weather History Date:

Wednesday, September 11, 2013

  Actual Average (KSPI) Record (KSPI)
Temperature  
Mean Temperature 82 °F 69 °F  
Max Temperature 96 °F 81 °F 98 °F (1936)
Min Temperature 68 °F 57 °F 39 °F (1917)
Degree Days  
Heating Degree Days 0 1  
Month to date heating degree days 8  
Since 1 July heating degree days 13  
Cooling Degree Days 17 5  
Month to date cooling degree days 68  
Year to date cooling degree days 1038  
Growing Degree Days 32 (Base 50)    
Moisture  
Dew Point 65 °F    
Average Humidity 58    
Maximum Humidity 91    
Minimum Humidity 28    
Precipitation  
Precipitation 0.00 in 0.10 in 2.49 in (1892)
Month to date precipitation 1.08  
Year to date precipitation 26.73  
Snow  
Snow 0.00 in 0.00 in 0.00 in ()
Month to date snowfall 0.0  
Since 1 July snowfall 0.0  
Since 1 September snowfall 0.0  
Snow Depth -    
Sea Level Pressure  
Sea Level Pressure 30.04 in    
Wind  
Wind Speed 3 mph (WSW)    
Max Wind Speed 9 mph    
Max Gust Speed 17 mph    
Visibility 9 miles    
Events Rain    
T = Trace of Precipitation, MM = Missing Value Source: NWS Daily Summary

Daily Weather History Graph

Daily Weather History Graph

Search for Another Location

Airport or City:

Trip Planner

Search our weather history database for the weather conditions in past years. The results will help you decide how hot, cold, wet, or windy it might be!

Date:

Astronomy

Sep. 11, 2013 Rise Set
Actual Time 6:34 AM CDT 7:12 PM CDT
Civil Twilight 6:07 AM CDT 7:39 PM CDT
Nautical Twilight 5:34 AM CDT 8:11 PM CDT
Astronomical Twilight 5:01 AM CDT 8:45 PM CDT
Moon 1:03 PM CDT (9/11) 11:07 PM CDT (9/11)
Length of Visible Light 13h 32m
Length of Day
12h 37m
Waxing Crescent, 39% of the Moon is Illuminated
Sep 11
Waxing Crescent
Sep 12
First Quarter
Sep 19
Full
Sep 26
Last Quarter
Oct 4
New

Hourly Weather History & Observations

Time (CDT) Temp. Heat Index Dew Point Humidity Pressure Visibility Wind Dir Wind Speed Gust Speed Precip Events Conditions
12:15 AM 76.5 °F - 69.8 °F 80% 30.04 in 10.0 mi SSW 3.5 mph - N/A   Clear
12:35 AM 76.3 °F - 69.8 °F 80% 30.03 in 10.0 mi South 3.5 mph - N/A   Clear
12:55 AM 75.0 °F - 69.8 °F 84% 30.03 in 10.0 mi Calm Calm - N/A   Clear
1:15 AM 74.5 °F - 69.8 °F 85% 30.03 in 10.0 mi South 4.6 mph - N/A   Clear
1:55 AM 73.4 °F - 69.8 °F 88% 30.04 in 7.0 mi SSW 4.6 mph - N/A   Clear
2:15 AM 73.8 °F - 69.8 °F 87% 30.04 in 7.0 mi Calm Calm - N/A   Clear
2:35 AM 73.8 °F - 69.4 °F 86% 30.03 in 7.0 mi SW 3.5 mph - N/A   Clear
2:55 AM 73.0 °F - 68.9 °F 87% 30.03 in 10.0 mi South 5.8 mph - N/A   Clear
3:15 AM 72.5 °F - 68.9 °F 88% 30.04 in 7.0 mi Calm Calm - N/A   Clear
3:35 AM 72.0 °F - 68.5 °F 89% 30.04 in 7.0 mi Calm Calm - N/A   Clear
3:55 AM 71.6 °F - 68.5 °F 90% 30.05 in 7.0 mi Calm Calm - N/A   Clear
4:15 AM 71.8 °F - 68.4 °F 89% 30.05 in 7.0 mi Calm Calm - N/A   Clear
4:35 AM 71.6 °F - 68.2 °F 89% 30.05 in 7.0 mi South 3.5 mph - N/A   Clear
4:55 AM 71.1 °F - 68.0 °F 90% 30.05 in 7.0 mi Calm Calm - N/A   Clear
5:15 AM 71.1 °F - 67.3 °F 88% 30.05 in 7.0 mi Calm Calm - N/A   Clear
5:35 AM 69.8 °F - 66.7 °F 90% 30.06 in 7.0 mi Calm Calm - N/A   Clear
5:55 AM 70.0 °F - 66.9 °F 90% 30.06 in 7.0 mi Calm Calm - N/A   Clear
6:15 AM 69.4 °F - 66.4 °F 90% 30.07 in 7.0 mi South 3.5 mph - N/A   Clear
6:35 AM 68.9 °F - 65.7 °F 89% 30.08 in 7.0 mi Calm Calm - N/A   Clear
6:55 AM 68.0 °F - 65.3 °F 91% 30.08 in 7.0 mi Calm Calm - N/A   Clear
7:15 AM 68.5 °F - 65.7 °F 90% 30.08 in 7.0 mi Calm Calm - N/A   Clear
7:35 AM 70.5 °F - 66.4 °F 87% 30.09 in 7.0 mi Calm Calm - N/A   Clear
7:55 AM 72.5 °F - 67.3 °F 84% 30.09 in 7.0 mi Calm Calm - N/A   Clear
8:15 AM 75.6 °F - 66.7 °F 74% 30.09 in 10.0 mi Calm Calm - N/A   Clear
8:35 AM 78.3 °F - 66.0 °F 66% 30.09 in 10.0 mi SW 4.6 mph - N/A   Clear
8:55 AM 80.8 °F 82.5 °F 64.9 °F 58% 30.09 in 10.0 mi Calm Calm - N/A   Clear
9:15 AM 82.4 °F 84.6 °F 66.2 °F 58% 30.09 in 10.0 mi SSW 3.5 mph - N/A   Clear
9:34 AM 84.2 °F 86.6 °F 66.2 °F 55% 30.08 in 10.0 mi Calm Calm - N/A   Clear
9:35 AM 84.4 °F 86.3 °F 65.7 °F 53% 30.08 in 10.0 mi Calm Calm - N/A   Clear
9:54 AM 86.0 °F 87.3 °F 64.4 °F 48% 30.07 in 10.0 mi SW 4.6 mph - N/A   Clear
9:55 AM 86.2 °F 88.2 °F 65.3 °F 50% 30.07 in 10.0 mi SW 4.6 mph - N/A   Clear
10:14 AM 89.6 °F 91.1 °F 64.4 °F 43% 30.07 in 10.0 mi West 4.6 mph - N/A   Clear
10:15 AM 88.7 °F 89.8 °F 63.9 °F 43% 30.07 in 10.0 mi WSW 3.5 mph - N/A   Clear
10:34 AM 89.6 °F 90.1 °F 62.6 °F 40% 30.07 in 10.0 mi West 8.1 mph - N/A   Clear
10:35 AM 90.1 °F 90.9 °F 62.8 °F 40% 30.07 in 10.0 mi West 6.9 mph - N/A   Clear
10:54 AM 91.4 °F 92.1 °F 62.6 °F 38% 30.06 in 10.0 mi WNW 6.9 mph - N/A   Clear
10:55 AM 90.7 °F 91.3 °F 62.4 °F 39% 30.06 in 10.0 mi WNW 6.9 mph - N/A   Clear
11:14 AM 93.2 °F 94.1 °F 62.6 °F 36% 30.06 in 10.0 mi West 5.8 mph - N/A   Clear
11:15 AM 92.5 °F 93.0 °F 61.7 °F 36% 30.06 in 10.0 mi West 5.8 mph - N/A   Clear
11:34 AM 93.2 °F 93.3 °F 60.8 °F 34% 30.05 in 10.0 mi West 4.6 mph - N/A   Clear
11:35 AM 93.2 °F 93.3 °F 60.8 °F 34% 30.05 in 10.0 mi West 4.6 mph - N/A   Clear
11:54 AM 93.2 °F 93.3 °F 60.8 °F 34% 30.05 in 10.0 mi WNW 8.1 mph 16.1 mph N/A   Clear
11:55 AM 94.3 °F 94.1 °F 60.3 °F 32% 30.05 in 10.0 mi WNW 6.9 mph 16.1 mph N/A   Clear
12:14 PM 95.0 °F 95.2 °F 60.8 °F 32% 30.05 in 10.0 mi WNW 4.6 mph - N/A   Clear
12:15 PM 94.6 °F 95.1 °F 61.0 °F 33% 30.05 in 10.0 mi WNW 4.6 mph - N/A   Clear
12:35 PM 95.4 °F 95.3 °F 60.6 °F 31% 30.04 in 10.0 mi West 6.9 mph - N/A   Clear
12:55 PM 95.2 °F 94.7 °F 59.5 °F 30% 30.04 in 10.0 mi West 8.1 mph 17.3 mph N/A   Clear
1:15 PM 95.4 °F 94.9 °F 59.5 °F 30% 30.04 in 10.0 mi WSW 9.2 mph 16.1 mph N/A   Clear
1:35 PM 95.5 °F 95.2 °F 59.2 °F 30% 30.03 in 10.0 mi West 8.1 mph 16.1 mph N/A   Clear
1:55 PM 95.9 °F 95.7 °F 59.9 °F 30% 30.02 in 10.0 mi WSW 8.1 mph 16.1 mph N/A   Clear
2:15 PM 95.4 °F 94.9 °F 59.0 °F 30% 30.02 in 10.0 mi WSW 5.8 mph - N/A   Clear
2:35 PM 96.3 °F 95.5 °F 58.3 °F 28% 30.02 in 10.0 mi WSW 6.9 mph - N/A   Clear
2:55 PM 96.1 °F 96.0 °F 60.4 °F 30% 30.01 in 10.0 mi WSW 8.1 mph - N/A   Clear
3:15 PM 95.7 °F 95.1 °F 58.3 °F 29% 30.01 in 10.0 mi SW 8.1 mph - N/A   Clear
3:35 PM 95.4 °F 95.7 °F 61.5 °F 32% 30.00 in 10.0 mi SW 8.1 mph - N/A   Clear
3:55 PM 95.0 °F 95.2 °F 60.6 °F 32% 30.00 in 10.0 mi WSW 9.2 mph - N/A   Clear
4:15 PM 95.0 °F 94.8 °F 59.5 °F 31% 30.00 in 10.0 mi WSW 4.6 mph - N/A   Clear
4:35 PM 94.1 °F 94.2 °F 61.0 °F 33% 29.99 in 10.0 mi WSW 6.9 mph - N/A   Clear
4:55 PM 93.7 °F 94.1 °F 61.7 °F 34% 29.99 in 10.0 mi SW 6.9 mph - N/A   Clear
5:15 PM 93.2 °F 93.7 °F 61.9 °F 35% 29.99 in 10.0 mi SW 4.6 mph - N/A   Clear
5:35 PM 92.3 °F 93.4 °F 63.0 °F 38% 29.99 in 10.0 mi SW 8.1 mph - N/A   Clear
5:55 PM 90.5 °F 91.8 °F 63.7 °F 41% 29.99 in 10.0 mi SW 3.5 mph - N/A   Clear
6:15 PM 90.0 °F 91.3 °F 64.0 °F 42% 29.99 in 10.0 mi SW 4.6 mph - N/A   Clear
6:35 PM 88.3 °F 89.5 °F 64.0 °F 44% 29.99 in 10.0 mi SW 3.5 mph - N/A   Clear
6:55 PM 86.7 °F 88.1 °F 64.4 °F 47% 29.98 in 10.0 mi SW 3.5 mph - N/A   Clear
7:15 PM 85.1 °F 86.9 °F 65.1 °F 51% 29.99 in 10.0 mi Calm Calm - N/A   Clear
7:35 PM 84.6 °F 86.6 °F 65.5 °F 53% 29.99 in 10.0 mi Calm Calm - N/A   Clear
7:55 PM 84.2 °F 86.3 °F 65.7 °F 54% 29.99 in 10.0 mi Calm Calm - N/A   Clear
8:15 PM 83.7 °F 86.0 °F 66.2 °F 56% 30.00 in 10.0 mi Calm Calm - N/A   Clear
8:35 PM 82.4 °F 84.8 °F 66.7 °F 59% 30.00 in 10.0 mi Calm Calm - N/A   Clear
8:55 PM 79.9 °F - 67.3 °F 65% 30.01 in 10.0 mi Calm Calm - N/A   Clear
9:15 PM 79.2 °F - 67.3 °F 67% 30.01 in 10.0 mi NNE 3.5 mph - N/A   Clear
9:35 PM 78.1 °F - 66.9 °F 68% 30.01 in 10.0 mi Calm Calm - N/A   Scattered Clouds
9:55 PM 77.4 °F - 67.1 °F 71% 30.01 in 10.0 mi Calm Calm - N/A   Scattered Clouds
10:15 PM 76.8 °F - 67.1 °F 72% 30.01 in 10.0 mi Calm Calm - N/A   Clear
10:35 PM 76.8 °F - 67.5 °F 73% 30.01 in 10.0 mi Calm Calm - N/A   Scattered Clouds
10:55 PM 77.0 °F - 68.0 °F 74% 30.01 in 10.0 mi Calm Calm - N/A   Mostly Cloudy
11:15 PM 77.0 °F - 67.5 °F 72% 30.01 in 10.0 mi Calm Calm - N/A   Overcast
11:35 PM 77.0 °F - 67.3 °F 72% 30.01 in 10.0 mi Calm Calm - N/A   Overcast
11:55 PM 77.0 °F - 66.9 °F 71% 30.00 in 10.0 mi Calm Calm - N/A Rain Light Rain